Location: Fourcous
(44.6719°N, 2.3662°E)
Time: 07:13:59
(UTC+00:00)

Daily predictions for brighter satellites

Satellite Brightness Start Highest point End
(mag) Time Altitude Azimuth Time Altitude Azimuth Time Altitude Azimuth
Cosmos 1943 3.4 16:58:43 10° S 17:04:13 57° ESE 17:09:45 10° NNE
Cosmos 2297 3.9 17:02:42 10° NNW 17:08:23 83° WSW 17:14:03 10° SSE
Meteor 1-28 Rocket 3.3 17:08:02 10° N 17:11:19 64° WNW 17:14:33 10° SSW
Landsat 7 3.7 17:07:08 10° SSE 17:11:44 69° ENE 17:16:23 10° N
UNK 3.7 17:08:12 10° NNE 17:12:43 73° ESE 17:17:13 10° S
Cosmos 1743 Rocket 4.4 17:09:00 10° NNW 17:13:16 56° W 17:17:28 10° S
Cosmos 1633 Rocket 3.1 17:09:39 10° N 17:13:53 53° ENE 17:18:05 10° SSE
Cosmos 1954 Rocket 4.0 17:09:18 10° NNW 17:14:31 87° ENE 17:19:46 10° SSE
Cosmos 2263 4.3 17:09:25 10° NNW 17:15:09 89° ENE 17:20:47 10° SSE
Cosmos 2341 Rocket 4.2 17:08:58 10° N 17:15:09 53° ENE 17:21:15 10° SSE
USA 32 4.0 17:10:46 10° N 17:16:02 79° E 17:21:15 10° S
USA 238 DEB 4.2 17:10:51 10° NNW 17:17:58 49° NE 17:25:41 10° ESE
USA 238 4.2 17:10:58 10° NNW 17:18:04 49° NE 17:25:47 10° ESE
SMAP 3.1 17:13:40 10° SSE 17:18:19 88° WSW 17:23:01 10° NNW
USA 276 3.1 17:17:28 10° SSW 17:19:19 21° SE 17:21:09 11° E
Cosmos 2237 Rocket 4.5 17:18:26 10° W 17:21:47 16° NW 17:25:08 10° N
COSMO-SKYMED 1 3.9 17:19:06 10° NE 17:21:58 18° E 17:24:48 10° SE
Cosmos 1666 Rocket 3.5 17:18:07 10° N 17:22:35 82° E 17:27:01 10° S
USA 267 4.0 17:17:54 10° ENE 17:23:40 35° NNE 17:29:26 10° NW
Cosmos 1371 Rocket 4.1 17:19:21 10° SSW 17:24:39 85° WNW 17:29:55 10° NNE
SL-16 R/B 3.4 17:19:29 10° SW 17:24:47 40° WNW 17:30:08 10° NNE
Cosmos 968 Rocket 3.7 17:20:48 10° N 17:25:44 44° ENE 17:30:36 10° SE
IRS-1C 4.1 17:20:53 10° SSE 17:26:11 74° ENE 17:31:30 10° N
SAR-Lupe-1 4.4 17:24:57 10° SE 17:28:18 42° ENE 17:31:42 10° N
Cosmos 1328 Rocket 3.6 17:25:47 10° S 17:30:08 87° W 17:34:33 10° N
Cosmos 1624 Rocket 4.3 17:26:45 10° SSW 17:32:00 74° WNW 17:37:19 10° NNE
SL-4 R/B 3.0 17:28:28 10° WNW 17:32:16 45° SW 17:35:57 10° SE
Meteor 1-23 Rocket 4.4 17:27:16 10° S 17:32:45 53° E 17:38:13 10° NNE
SJ-12 3.6 17:30:05 10° SSE 17:33:53 80° ENE 17:37:43 10° N
Cosmos 1741 Rocket 4.5 17:30:26 10° N 17:35:17 38° ENE 17:40:06 10° SE
Cosmos 1331 Rocket 4.3 17:30:28 10° S 17:35:18 45° ESE 17:40:11 10° NNE
BREEZE-M DEB (TANK) 3.7 17:29:39 10° W 17:35:22 51° NNW 17:38:13 15° ENE
Thor Agena Rocket 4.2 17:33:17 10° S 17:38:14 59° WSW 17:43:13 10° NNW
SKYMED 2 3.9 17:34:21 10° NNE 17:38:31 44° E 17:42:40 10° S
SPOT 1/Viking Rocket 3.6 17:33:36 10° SSE 17:38:39 58° ENE 17:43:41 10° N
OPS 8737 4.1 17:36:26 10° NW 17:39:29 86° SW 17:42:38 10° SE
NOSS 2-3 (D) 4.4 17:34:41 10° NW 17:39:58 88° SW 17:47:10 10° SE
AQUARIUS 4.1 17:36:12 10° SSE 17:40:36 88° E 17:45:02 10° NNW
Cosmos 1850 Rocket 4.3 17:38:08 10° N 17:43:16 46° ENE 17:48:22 10° SE
Meteor 1-21 4.2 17:37:52 10° S 17:43:21 59° E 17:48:52 10° NNE
SAR-Lupe-4 3.4 17:41:20 10° SSE 17:44:54 72° ENE 17:48:29 10° N
NOSS 2-3 (C) 4.4 17:41:51 10° NW 17:47:09 90° SW 17:54:35 10° SE
Cosmos 676 Rocket 4.4 17:42:07 10° NNW 17:47:15 66° WSW 17:52:24 10° S
Meteor 1-16 Rocket 4.1 17:42:24 10° N 17:47:38 55° ENE 17:52:53 10° SSE
SL-8 Rocket 4.0 17:43:27 10° N 17:49:41 86° W 17:55:51 10° S
Cosmos 1110 Rocket 3.9 17:46:18 10° S 17:51:28 68° ESE 17:56:38 10° NNE
Cosmos 1515 Rocket 3.5 17:49:30 10° S 17:53:53 69° E 17:58:17 10° NNE
Cosmos 1656 4.3 17:49:28 10° N 17:54:33 34° NE 17:59:09 12° ESE
YAOGAN 1 2.6 17:51:44 10° SSE 17:55:50 50° ENE 17:59:58 10° N
NOAA 6 4.5 17:51:35 10° SE 17:56:14 37° ENE 18:00:55 10° N
SJ 16-02 3.6 17:54:10 10° NW 17:57:50 28° W 18:01:28 10° SSW
Resurs 01 Rocket 2.6 17:56:23 20° E 17:57:57 25° ENE 18:01:30 10° NNE
COSMOS 2455 4.4 17:54:42 10° N 17:58:09 15° NNE 17:59:03 15° NE
NOSS 3-4 (A) 3.0 17:52:58 10° SSW 17:58:11 78° SE 18:02:41 16° NE
NOSS 3-4 (C) 3.1 17:53:05 10° SSW 17:58:20 78° SE 18:02:51 17° NE
Meteor 1-12 Rocket 4.2 17:53:11 10° N 17:58:47 62° ENE 18:04:21 10° SSE
PSLV R/B 3.8 17:57:06 10° SE 18:00:59 40° ENE 18:04:54 10° N
Cosmos 292 Rocket 4.0 17:56:38 10° N 18:01:06 41° ENE 18:05:32 10° SE
Okean 3 4.0 17:58:13 10° SSE 18:01:52 33° E 18:03:07 26° NE
Cosmos 1452 Rocket 3.5 17:56:44 10° S 18:01:52 59° ESE 18:06:22 14° NNE
Cosmos 1703 3.0 17:58:58 10° SSW 18:02:15 72° W 18:05:35 10° N
Cosmos 1953 2.5 18:00:15 10° NNW 18:03:56 66° W 18:07:35 10° S
Meteor 2-15 4.4 17:57:51 10° N 18:04:00 68° E 18:10:04 10° SSE
BREEZE-M (TANK) 1.6 18:02:01 10° WSW 18:04:04 58° NNW 18:04:33 44° NE
Cosmos 1340 Rocket 3.1 18:00:52 10° N 18:04:27 38° ENE 18:08:03 10° SE
CZ-4 R/B 4.5 18:04:43 10° S 18:08:40 76° WSW 18:12:39 10° NNW
OPS 6432 4.2 18:08:13 10° NW 18:11:34 85° SW 18:13:54 18° SE
Cosmos 1821 Rocket 3.9 18:07:44 10° N 18:13:59 87° E 18:20:07 10° S
ATLAS 5 CENTAUR R/B 2.9 18:11:55 10° W 18:14:14 20° NW 18:15:58 14° N
Spot 4 Rocket 3.9 18:15:27 10° SSE 18:20:34 80° ENE 18:25:43 10° NNW
Cosmos 2181 Rocket 4.2 18:18:14 10° SSW 18:24:20 72° W 18:30:35 10° N
Cosmos 1603 3.9 18:18:46 10° SSW 18:24:24 71° WNW 18:29:14 14° NNE
Cosmos 1933 Rocket 3.4 18:20:00 10° N 18:24:24 89° ENE 18:28:46 10° S
Cosmos 1697 Rocket 3.9 18:21:40 10° N 18:25:14 23° NE 18:25:14 23° NE
BREEZE-M DEB (TANK) 2.6 18:24:15 10° WSW 18:26:47 83° NNW 18:27:50 46° ENE
ISS -3.8 18:23:40 10° WSW 18:27:00 72° NNW 18:27:15 68° N
USA 215 3.2 18:29:08 30° ENE 18:32:40 74° SE 18:39:10 10° SW
USA 59 Rocket 2.0 18:32:13 10° N 18:32:24 11° N 18:32:24 11° N
Cosmos 1833 Rocket 3.6 18:30:09 10° SSE 18:34:06 30° ESE 18:34:06 30° ESE
Okean 2 3.5 18:31:28 10° SSW 18:35:18 65° W 18:37:47 21° N
CZ-2D R/B 4.1 18:36:27 10° S 18:40:11 50° W 18:43:56 10° NNW
RESURS DK-1 2.1 18:38:13 10° SSW 18:42:12 87° ESE 18:42:20 83° NE
DNEPR-1 R/B 4.2 18:45:40 10° SW 18:49:59 50° NW 18:51:03 40° N
Cosmos 1869 Rocket 3.8 18:46:36 10° NNW 18:50:59 69° W 18:55:18 10° S
Meteor 2-8 Rocket 4.3 18:47:41 10° N 18:53:53 81° E 19:00:03 10° S
CARTOSAT-1 3.7 18:49:59 10° S 18:54:10 67° WSW 18:58:22 10° NNW
SL-24 R/B - RUBIN 2 3.6 18:50:53 10° NW 18:55:13 76° WSW 18:55:37 69° S
COSMO-SKYMED 1 3.6 18:54:39 17° N 18:57:25 41° WNW 19:01:16 10° SW
Cosmos 1934 Rocket 3.8 18:52:33 10° N 18:58:42 72° E 19:04:53 10° SSE
Cosmos 2360 4.1 18:54:51 10° NNW 19:00:37 84° ENE 19:02:10 51° SSE
USA 267 3.2 19:04:50 57° E 19:06:04 69° NNE 19:12:33 10° NW
CZ-3 Stage 3 4.0 19:04:04 10° SW 19:10:24 19° SSW 19:11:53 17° S
Nadezhda 3 Rocket 4.5 19:06:18 10° SSW 19:12:20 58° WNW 19:18:25 10° N
BREEZE-M DEB (TANK) 3.8 19:16:13 10° W 19:20:01 64° N 19:21:08 56° NE
Resurs 01 Rocket 3.1 19:30:12 10° SSW 19:34:09 34° W 19:38:09 10° NNW
COSMOS 2455 4.3 19:39:31 10° NNW 19:42:12 26° NNW 19:42:12 26° NNW
Cosmos 1980 Rocket 4.4 19:40:31 10° NNW 19:41:15 14° N 19:41:15 14° N
USA 215 4.2 20:16:29 42° NW 20:16:29 42° NW 20:21:35 10° W
